Time,TemperatureF,DewpointF,PressureIn,WindDirection,WindDirectionDegrees,WindSpeedMPH,WindSpeedGustMPH,Humidity,HourlyPrecipIn,Conditions,Clouds,dailyrainin,SoftwareType,DateUTC
2013-02-05 00:00:00,20.1,-10.1,29.94,WSW,248,0.0,0.0,25,0.00,,---,0.00,VWS V14.01,2013-02-05 05:00:00,
2013-02-05 00:05:00,20.1,-10.1,29.94,WSW,248,0.0,0.0,25,0.00,,---,0.00,VWS V14.01,2013-02-05 05:05:00,
2013-02-05 00:10:00,20.5,-9.7,29.94,WSW,248,0.0,0.0,25,0.00,,---,0.00,VWS V14.01,2013-02-05 05:10:00,
2013-02-05 00:15:00,20.5,-9.7,29.94,WSW,248,0.0,0.0,25,0.00,,---,0.00,VWS V14.01,2013-02-05 05:15:00,
2013-02-05 00:21:00,20.5,-9.7,29.94,WSW,248,0.0,0.0,25,0.00,,---,0.00,VWS V14.01,2013-02-05 05:21:00,
2013-02-05 00:26:00,20.5,-8.2,29.94,WSW,248,0.0,0.0,27,0.00,,---,0.00,VWS V14.01,2013-02-05 05:26:00,
2013-02-05 00:31:00,20.7,-8.0,29.94,WSW,248,0.0,0.0,27,0.00,,---,0.00,VWS V14.01,2013-02-05 05:31:00,
2013-02-05 00:36:00,21.0,-5.5,29.91,WSW,248,0.0,0.0,30,0.00,,---,0.00,VWS V14.01,2013-02-05 05:36:00,
2013-02-05 00:41:00,21.2,-5.4,29.91,WSW,248,0.0,0.0,30,0.00,,---,0.00,VWS V14.01,2013-02-05 05:41:00,
2013-02-05 00:46:00,21.4,-5.2,29.91,WSW,248,0.0,0.0,30,0.00,,---,0.00,VWS V14.01,2013-02-05 05:46:00,
2013-02-05 00:51:00,21.6,-5.1,29.91,WSW,248,0.0,0.0,30,0.00,,---,0.00,VWS V14.01,2013-02-05 05:51:00,
2013-02-05 00:56:00,21.7,-4.9,29.91,WSW,248,0.0,0.0,30,0.00,,---,0.00,VWS V14.01,2013-02-05 05:56:00,
2013-02-05 01:01:00,21.7,-4.9,29.91,WSW,248,0.0,0.0,30,0.00,,---,0.00,VWS V14.01,2013-02-05 06:01:00,
2013-02-05 01:06:00,21.7,-4.9,29.91,WSW,248,0.0,0.0,30,0.00,,---,0.00,VWS V14.01,2013-02-05 06:06:00,
2013-02-05 01:11:00,21.7,-4.9,29.91,WSW,248,0.0,0.0,30,0.00,,---,0.00,VWS V14.01,2013-02-05 06:11:00,
2013-02-05 01:16:00,21.9,-4.8,29.91,WSW,248,0.0,0.0,30,0.00,,---,0.00,VWS V14.01,2013-02-05 06:16:00,
2013-02-05 01:21:00,22.1,-4.6,29.91,WSW,248,0.0,0.0,30,0.00,,---,0.00,VWS V14.01,2013-02-05 06:21:00,
2013-02-05 01:26:00,22.1,-4.6,29.91,WSW,248,0.0,0.0,30,0.00,,---,0.00,VWS V14.01,2013-02-05 06:26:00,
2013-02-05 01:31:00,22.3,-3.1,29.91,WSW,248,0.0,0.0,32,0.00,,---,0.00,VWS V14.01,2013-02-05 06:31:00,
2013-02-05 01:36:00,22.5,-2.9,29.91,WSW,248,0.0,0.0,32,0.00,,---,0.00,VWS V14.01,2013-02-05 06:36:00,
2013-02-05 01:41:00,22.5,-2.9,29.91,WSW,248,0.0,0.0,32,0.00,,---,0.00,VWS V14.01,2013-02-05 06:41:00,
2013-02-05 01:46:00,22.6,-2.8,29.91,WSW,248,0.0,0.0,32,0.00,,---,0.00,VWS V14.01,2013-02-05 06:46:00,
2013-02-05 01:51:00,22.8,-2.6,29.91,WSW,248,0.0,0.0,32,0.00,,---,0.00,VWS V14.01,2013-02-05 06:51:00,
2013-02-05 01:56:00,22.6,-2.8,29.91,WSW,248,0.0,0.0,32,0.00,,---,0.00,VWS V14.01,2013-02-05 06:56:00,
2013-02-05 02:01:00,22.6,-2.8,29.91,WSW,248,0.0,0.0,32,0.00,,---,0.00,VWS V14.01,2013-02-05 07:01:00,
2013-02-05 02:06:00,22.6,-2.8,29.91,WSW,248,0.0,0.0,32,0.00,,---,0.00,VWS V14.01,2013-02-05 07:06:00,
2013-02-05 02:11:00,22.6,-2.8,29.91,WSW,248,0.0,0.0,32,0.00,,---,0.00,VWS V14.01,2013-02-05 07:11:00,
2013-02-05 02:16:00,22.8,-2.6,29.91,WSW,248,0.0,0.0,32,0.00,,---,0.00,VWS V14.01,2013-02-05 07:16:00,
2013-02-05 02:21:00,23.0,-2.5,29.91,WSW,248,0.0,0.0,32,0.00,,---,0.00,VWS V14.01,2013-02-05 07:21:00,
2013-02-05 02:26:00,22.8,-2.6,29.91,WSW,248,0.0,0.0,32,0.00,,---,0.00,VWS V14.01,2013-02-05 07:26:00,
2013-02-05 02:31:00,22.8,-2.6,29.91,WSW,248,0.0,0.0,32,0.00,,---,0.00,VWS V14.01,2013-02-05 07:31:00,
2013-02-05 02:36:00,22.8,-2.0,29.91,WSW,248,0.0,0.0,33,0.00,,---,0.00,VWS V14.01,2013-02-05 07:36:00,
2013-02-05 02:41:00,23.0,-1.8,29.91,WSW,248,0.0,0.0,33,0.00,,---,0.00,VWS V14.01,2013-02-05 07:41:00,
2013-02-05 02:46:00,22.8,-2.0,29.91,WSW,248,0.0,0.0,33,0.00,,---,0.00,VWS V14.01,2013-02-05 07:46:00,
2013-02-05 02:51:00,23.0,-1.8,29.91,WSW,248,0.0,0.0,33,0.00,,---,0.00,VWS V14.01,2013-02-05 07:51:00,
2013-02-05 02:56:00,23.0,-1.8,29.91,WSW,248,0.0,0.0,33,0.00,,---,0.00,VWS V14.01,2013-02-05 07:56:00,
2013-02-05 03:01:00,23.0,-1.8,29.91,WSW,248,0.0,0.0,33,0.00,,---,0.00,VWS V14.01,2013-02-05 08:01:00,
2013-02-05 03:06:00,23.0,-1.2,29.94,WSW,248,0.0,0.0,34,0.00,,---,0.00,VWS V14.01,2013-02-05 08:06:00,
2013-02-05 03:11:00,23.0,-1.2,29.94,WSW,248,0.0,0.0,34,0.00,,---,0.00,VWS V14.01,2013-02-05 08:11:00,
2013-02-05 03:16:00,23.0,-1.2,29.94,WSW,248,0.0,0.0,34,0.00,,---,0.00,VWS V14.01,2013-02-05 08:16:00,
2013-02-05 03:21:00,23.0,-1.2,29.91,WSW,248,0.0,0.0,34,0.00,,---,0.00,VWS V14.01,2013-02-05 08:21:00,
2013-02-05 03:26:00,23.0,-0.6,29.91,WSW,248,0.0,0.0,35,0.00,,---,0.00,VWS V14.01,2013-02-05 08:26:00,
2013-02-05 03:31:00,23.0,-0.6,29.91,WSW,248,0.0,0.0,35,0.00,,---,0.00,VWS V14.01,2013-02-05 08:31:00,
2013-02-05 03:36:00,23.0,-0.6,29.91,WSW,248,0.0,0.0,35,0.00,,---,0.00,VWS V14.01,2013-02-05 08:36:00,
2013-02-05 03:41:00,23.0,0.0,29.91,WSW,248,0.0,0.0,36,0.00,,---,0.00,VWS V14.01,2013-02-05 08:41:00,
2013-02-05 03:46:00,23.0,0.0,29.91,WSW,248,0.0,0.0,36,0.00,,---,0.00,VWS V14.01,2013-02-05 08:46:00,
2013-02-05 03:51:00,23.0,0.0,29.91,WSW,248,0.0,0.0,36,0.00,,---,0.00,VWS V14.01,2013-02-05 08:51:00,
2013-02-05 03:56:00,23.0,0.6,29.91,WSW,248,0.0,0.0,37,0.00,,---,0.04,VWS V14.01,2013-02-05 08:56:00,
2013-02-05 04:01:00,23.0,0.6,29.91,WSW,248,0.0,3.1,37,0.00,,---,0.00,VWS V14.01,2013-02-05 09:01:00,
2013-02-05 04:06:00,23.0,0.6,29.91,WSW,248,0.0,0.0,37,0.00,,---,0.00,VWS V14.01,2013-02-05 09:06:00,
2013-02-05 04:11:00,23.0,1.2,29.91,WSW,248,0.0,0.0,38,0.00,,---,0.00,VWS V14.01,2013-02-05 09:11:00,
2013-02-05 04:16:00,23.2,1.4,29.91,WSW,248,0.0,0.0,38,0.00,,---,0.00,VWS V14.01,2013-02-05 09:16:00,
2013-02-05 04:21:00,23.4,1.5,29.91,WSW,248,0.0,0.0,38,0.00,,---,0.00,VWS V14.01,2013-02-05 09:21:00,
2013-02-05 04:26:00,23.4,2.1,29.91,WSW,248,0.0,0.0,39,0.00,,---,0.00,VWS V14.01,2013-02-05 09:26:00,
2013-02-05 04:31:00,23.2,1.9,29.91,WSW,248,0.0,0.0,39,0.00,,---,0.00,VWS V14.01,2013-02-05 09:31:00,
2013-02-05 04:36:00,23.0,2.3,29.91,WSW,248,0.0,0.0,40,0.00,,---,0.00,VWS V14.01,2013-02-05 09:36:00,
2013-02-05 04:41:00,23.0,2.3,29.91,WSW,248,0.0,0.0,40,0.00,,---,0.00,VWS V14.01,2013-02-05 09:41:00,
2013-02-05 04:46:00,22.8,2.1,29.91,WSW,248,0.0,0.0,40,0.00,,---,0.00,VWS V14.01,2013-02-05 09:46:00,
2013-02-05 04:51:00,22.8,2.7,29.91,WSW,248,0.0,0.0,41,0.00,,---,0.00,VWS V14.01,2013-02-05 09:51:00,
2013-02-05 04:56:00,22.8,3.2,29.91,WSW,248,0.0,0.0,42,0.00,,---,0.00,VWS V14.01,2013-02-05 09:56:00,
2013-02-05 05:01:00,22.8,3.2,29.91,WSW,248,0.0,0.0,42,0.00,,---,0.00,VWS V14.01,2013-02-05 10:01:00,
2013-02-05 05:06:00,22.8,3.2,29.91,WSW,248,0.0,0.0,42,0.00,,---,0.00,VWS V14.01,2013-02-05 10:06:00,
2013-02-05 05:11:00,22.6,3.5,29.91,WSW,248,0.0,0.0,43,0.00,,---,0.00,VWS V14.01,2013-02-05 10:11:00,
2013-02-05 05:16:00,22.6,3.5,29.91,WSW,248,0.0,0.0,43,0.00,,---,0.00,VWS V14.01,2013-02-05 10:16:00,
2013-02-05 05:21:00,22.5,3.9,29.88,WSW,248,0.0,3.1,44,0.00,,---,0.00,VWS V14.01,2013-02-05 10:21:00,
2013-02-05 05:27:00,22.5,4.3,29.88,WSW,248,0.0,0.0,45,0.00,,---,0.00,VWS V14.01,2013-02-05 10:27:00,
2013-02-05 05:31:00,22.5,4.3,29.88,WSW,248,0.0,0.0,45,0.00,,---,0.00,VWS V14.01,2013-02-05 10:31:00,
2013-02-05 05:37:00,22.6,4.5,29.91,WSW,248,0.0,0.0,45,0.00,,---,0.00,VWS V14.01,2013-02-05 10:37:00,
2013-02-05 05:42:00,22.6,4.5,29.91,WSW,248,0.0,0.0,45,0.00,,---,0.00,VWS V14.01,2013-02-05 10:42:00,
2013-02-05 05:47:00,22.6,4.5,29.91,WSW,248,0.0,0.0,45,0.00,,---,0.00,VWS V14.01,2013-02-05 10:47:00,
2013-02-05 05:52:00,22.5,4.8,29.91,WSW,248,0.0,0.0,46,0.00,,---,0.00,VWS V14.01,2013-02-05 10:52:00,
2013-02-05 05:57:00,22.3,4.7,29.91,WSW,248,0.0,0.0,46,0.00,,---,0.00,VWS V14.01,2013-02-05 10:57:00,
2013-02-05 06:02:00,22.3,4.7,29.91,WSW,248,0.0,0.0,46,0.00,,---,0.00,VWS V14.01,2013-02-05 11:02:00,
2013-02-05 06:07:00,22.3,5.1,29.91,WSW,248,0.0,0.0,47,0.00,,---,0.00,VWS V14.01,2013-02-05 11:07:00,
2013-02-05 06:12:00,22.1,5.0,29.91,WSW,248,0.0,0.0,47,0.00,,---,0.00,VWS V14.01,2013-02-05 11:12:00,
2013-02-05 06:17:00,22.1,5.4,29.91,WSW,248,0.0,0.0,48,0.00,,---,0.00,VWS V14.01,2013-02-05 11:17:00,
2013-02-05 06:22:00,22.1,5.4,29.91,WSW,248,0.0,0.0,48,0.00,,---,0.00,VWS V14.01,2013-02-05 11:22:00,
2013-02-05 06:27:00,22.1,5.4,29.91,WSW,248,0.0,0.0,48,0.00,,---,0.00,VWS V14.01,2013-02-05 11:27:00,
2013-02-05 06:32:00,22.3,5.6,29.91,WSW,248,0.0,0.0,48,0.00,,---,0.00,VWS V14.01,2013-02-05 11:32:00,
2013-02-05 06:37:00,22.3,5.6,29.91,WSW,248,0.0,0.0,48,0.00,,---,0.00,VWS V14.01,2013-02-05 11:37:00,
2013-02-05 06:42:00,22.3,5.6,29.91,WSW,248,0.0,0.0,48,0.00,,---,0.00,VWS V14.01,2013-02-05 11:42:00,
2013-02-05 06:47:00,22.3,6.0,29.91,WSW,248,0.0,0.0,49,0.00,,---,0.00,VWS V14.01,2013-02-05 11:47:00,
2013-02-05 06:52:00,22.3,6.0,29.94,WSW,248,0.0,0.0,49,0.00,,---,0.00,VWS V14.01,2013-02-05 11:52:00,
2013-02-05 06:57:00,22.3,6.0,29.94,WSW,248,0.0,0.0,49,0.00,,---,0.00,VWS V14.01,2013-02-05 11:57:00,
2013-02-05 07:02:00,22.3,6.0,29.94,WSW,248,0.0,0.0,49,0.00,,---,0.00,VWS V14.01,2013-02-05 12:02:00,
2013-02-05 07:07:00,22.3,6.0,29.94,WSW,248,0.0,0.0,49,0.00,,---,0.00,VWS V14.01,2013-02-05 12:07:00,
2013-02-05 07:12:00,22.3,6.0,29.94,WSW,248,0.0,0.0,49,0.00,,---,0.00,VWS V14.01,2013-02-05 12:12:00,
2013-02-05 07:17:00,22.3,6.0,29.94,WSW,248,0.0,0.0,49,0.00,,---,0.00,VWS V14.01,2013-02-05 12:17:00,
2013-02-05 07:22:00,22.5,6.2,29.94,WSW,248,0.0,0.0,49,0.00,,---,0.00,VWS V14.01,2013-02-05 12:22:00,
2013-02-05 07:27:00,22.3,6.0,29.94,WSW,248,0.0,0.0,49,0.00,,---,0.00,VWS V14.01,2013-02-05 12:27:00,
2013-02-05 07:32:00,22.3,6.0,29.94,WSW,248,0.0,2.7,49,0.00,,---,0.00,VWS V14.01,2013-02-05 12:32:00,
2013-02-05 07:37:00,22.3,6.0,29.94,WSW,248,0.0,0.0,49,0.00,,---,0.00,VWS V14.01,2013-02-05 12:37:00,
2013-02-05 07:42:00,22.3,6.0,29.94,WSW,248,3.1,4.0,49,0.00,,---,0.00,VWS V14.01,2013-02-05 12:42:00,
2013-02-05 07:47:00,22.3,6.5,29.94,WSW,248,0.0,0.0,50,0.00,,---,0.00,VWS V14.01,2013-02-05 12:47:00,
2013-02-05 07:52:00,22.5,6.6,29.94,WSW,248,0.0,3.1,50,0.00,,---,0.00,VWS V14.01,2013-02-05 12:52:00,
2013-02-05 07:57:00,22.5,6.6,29.94,WSW,248,4.0,4.5,50,0.00,,---,0.00,VWS V14.01,2013-02-05 12:57:00,
2013-02-05 08:02:00,22.3,6.5,29.94,WSW,248,0.0,3.6,50,0.00,,---,0.00,VWS V14.01,2013-02-05 13:02:00,
2013-02-05 08:07:00,22.5,7.1,29.94,WSW,248,0.0,2.7,51,0.00,,---,0.00,VWS V14.01,2013-02-05 13:07:00,
2013-02-05 08:12:00,22.6,7.2,29.94,WSW,248,3.6,4.9,51,0.00,,---,0.00,VWS V14.01,2013-02-05 13:12:00,
2013-02-05 08:17:00,22.5,7.1,29.94,WSW,248,0.0,3.6,51,0.00,,---,0.00,VWS V14.01,2013-02-05 13:17:00,
2013-02-05 08:22:00,22.8,7.4,29.94,WSW,248,0.0,0.0,51,0.00,,---,0.00,VWS V14.01,2013-02-05 13:22:00,
2013-02-05 08:27:00,23.0,7.6,29.94,WSW,248,0.0,3.6,51,0.00,,---,0.00,VWS V14.01,2013-02-05 13:27:00,
2013-02-05 08:32:00,23.2,7.8,29.94,WSW,248,2.7,3.6,51,0.00,,---,0.00,VWS V14.01,2013-02-05 13:32:00,
2013-02-05 08:37:00,23.4,7.9,29.97,WNW,298,0.0,4.9,51,0.00,,---,0.00,VWS V14.01,2013-02-05 13:37:00,
2013-02-05 08:42:00,23.2,7.8,29.97,WNW,298,0.0,4.0,51,0.00,,---,0.00,VWS V14.01,2013-02-05 13:42:00,
2013-02-05 08:47:00,23.2,7.8,29.97,WNW,298,3.6,3.6,51,0.00,,---,0.00,VWS V14.01,2013-02-05 13:47:00,
2013-02-05 08:52:00,23.2,7.8,29.97,NW,311,0.0,2.7,51,0.00,,---,0.00,VWS V14.01,2013-02-05 13:52:00,
2013-02-05 08:57:00,23.4,7.9,29.97,NW,311,0.0,3.1,51,0.00,,---,0.00,VWS V14.01,2013-02-05 13:57:00,
2013-02-05 09:02:00,23.5,7.7,29.97,NW,311,0.0,0.0,50,0.00,,---,0.00,VWS V14.01,2013-02-05 14:02:00,
2013-02-05 09:07:00,23.7,7.8,29.97,NW,311,2.7,3.6,50,0.00,,---,0.00,VWS V14.01,2013-02-05 14:07:00,
2013-02-05 09:12:00,23.9,8.0,29.97,NW,311,3.1,4.0,50,0.00,,---,0.00,VWS V14.01,2013-02-05 14:12:00,
2013-02-05 09:17:00,23.9,8.0,29.97,NW,311,0.0,2.7,50,0.00,,---,0.00,VWS V14.01,2013-02-05 14:17:00,
2013-02-05 09:23:00,24.1,7.7,29.97,NW,311,0.0,2.7,49,0.00,,---,0.00,VWS V14.01,2013-02-05 14:23:00,
2013-02-05 09:28:00,24.4,8.0,29.97,NW,311,0.0,2.7,49,0.00,,---,0.00,VWS V14.01,2013-02-05 14:28:00,
2013-02-05 09:33:00,24.4,7.1,29.97,NW,311,3.1,3.1,47,0.00,,---,0.00,VWS V14.01,2013-02-05 14:33:00,
2013-02-05 09:38:00,24.6,7.3,29.97,NW,311,2.7,3.6,47,0.00,,---,0.00,VWS V14.01,2013-02-05 14:38:00,
2013-02-05 09:43:00,24.8,7.0,29.97,NW,311,2.7,3.1,46,0.00,,---,0.00,VWS V14.01,2013-02-05 14:43:00,
2013-02-05 09:48:00,24.8,6.5,29.97,NW,311,0.0,4.0,45,0.00,,---,0.00,VWS V14.01,2013-02-05 14:48:00,
2013-02-05 09:53:00,24.8,6.5,29.97,NW,311,2.7,4.0,45,0.00,,---,0.00,VWS V14.01,2013-02-05 14:53:00,
2013-02-05 09:58:00,24.6,5.8,29.97,NW,311,2.7,4.0,44,0.00,,---,0.00,VWS V14.01,2013-02-05 14:58:00,
2013-02-05 10:03:00,24.8,6.0,29.97,NW,311,3.1,3.6,44,0.00,,---,0.00,VWS V14.01,2013-02-05 15:03:00,
2013-02-05 10:08:00,25.0,6.2,29.97,NW,311,3.1,3.6,44,0.00,,---,0.00,VWS V14.01,2013-02-05 15:08:00,
2013-02-05 10:13:00,25.3,6.5,29.97,NW,311,3.1,4.0,44,0.00,,---,0.00,VWS V14.01,2013-02-05 15:13:00,
2013-02-05 10:18:00,25.5,6.2,29.97,NW,311,3.1,3.6,43,0.00,,---,0.00,VWS V14.01,2013-02-05 15:18:00,
2013-02-05 10:23:00,25.9,6.5,29.97,NW,311,3.1,3.6,43,0.00,,---,0.00,VWS V14.01,2013-02-05 15:23:00,
2013-02-05 10:28:00,26.2,6.8,29.97,NW,311,0.0,3.1,43,0.00,,---,0.00,VWS V14.01,2013-02-05 15:28:00,
2013-02-05 10:33:00,26.4,7.0,29.97,NW,311,0.0,3.1,43,0.00,,---,0.00,VWS V14.01,2013-02-05 15:33:00,
2013-02-05 10:38:00,26.4,7.0,29.97,NNE,21,2.7,4.5,43,0.00,,---,0.00,VWS V14.01,2013-02-05 15:38:00,
2013-02-05 10:43:00,26.8,6.8,29.97,NNE,21,0.0,4.0,42,0.00,,---,0.00,VWS V14.01,2013-02-05 15:43:00,
2013-02-05 10:48:00,27.1,7.1,29.97,NNE,22,3.6,4.0,42,0.00,,---,0.00,VWS V14.01,2013-02-05 15:48:00,
2013-02-05 10:53:00,27.1,7.1,29.97,NNE,21,2.7,4.5,42,0.00,,---,0.00,VWS V14.01,2013-02-05 15:53:00,
2013-02-05 10:58:00,27.1,6.6,29.97,NNE,21,0.0,3.6,41,0.00,,---,0.00,VWS V14.01,2013-02-05 15:58:00,
2013-02-05 11:03:00,27.0,6.4,29.97,NNE,22,0.0,4.0,41,0.00,,---,0.00,VWS V14.01,2013-02-05 16:03:00,
2013-02-05 11:08:00,27.1,6.6,29.97,NNE,21,0.0,3.1,41,0.00,,---,0.00,VWS V14.01,2013-02-05 16:08:00,
2013-02-05 11:13:00,27.3,7.3,29.97,NNE,22,0.0,3.6,42,0.00,,---,0.00,VWS V14.01,2013-02-05 16:13:00,
2013-02-05 11:18:00,27.5,6.9,29.97,NNE,22,3.1,3.6,41,0.00,,---,0.00,VWS V14.01,2013-02-05 16:18:00,
2013-02-05 11:23:00,27.1,6.0,29.97,NNE,22,3.6,4.5,40,0.00,,---,0.00,VWS V14.01,2013-02-05 16:23:00,
2013-02-05 11:28:00,27.3,6.7,29.97,NNE,22,0.0,3.6,41,0.00,,---,0.00,VWS V14.01,2013-02-05 16:28:00,
2013-02-05 11:33:00,27.7,6.5,29.97,NNE,22,2.7,3.6,40,0.00,,---,0.00,VWS V14.01,2013-02-05 16:33:00,
2013-02-05 11:38:00,27.7,7.1,29.94,NNE,22,0.0,3.1,41,0.00,,---,0.00,VWS V14.01,2013-02-05 16:38:00,
2013-02-05 11:43:00,28.0,7.4,29.94,NNE,22,2.7,2.7,41,0.00,,---,0.00,VWS V14.01,2013-02-05 16:43:00,
2013-02-05 11:48:00,28.0,6.8,29.94,East,94,0.0,4.0,40,0.00,,---,0.00,VWS V14.01,2013-02-05 16:48:00,
2013-02-05 11:54:00,28.0,6.8,29.94,East,95,0.0,3.1,40,0.00,,---,0.00,VWS V14.01,2013-02-05 16:54:00,
2013-02-05 11:59:00,28.2,7.6,29.94,East,95,0.0,3.6,41,0.00,,---,0.00,VWS V14.01,2013-02-05 16:59:00,
2013-02-05 12:04:00,28.2,7.6,29.94,East,95,0.0,4.0,41,0.00,,---,0.00,VWS V14.01,2013-02-05 17:04:00,
2013-02-05 12:09:00,28.0,6.8,29.94,East,95,3.1,4.0,40,0.00,,---,0.00,VWS V14.01,2013-02-05 17:09:00,
2013-02-05 12:14:00,28.0,6.8,29.94,East,95,0.0,4.5,40,0.00,,---,0.00,VWS V14.01,2013-02-05 17:14:00,
2013-02-05 12:19:00,27.9,6.7,29.94,East,94,0.0,2.7,40,0.00,,---,0.00,VWS V14.01,2013-02-05 17:19:00,
2013-02-05 12:24:00,27.9,6.7,29.94,East,95,0.0,4.5,40,0.00,,---,0.00,VWS V14.01,2013-02-05 17:24:00,
2013-02-05 12:29:00,28.0,6.3,29.94,East,95,0.0,4.9,39,0.00,,---,0.00,VWS V14.01,2013-02-05 17:29:00,
2013-02-05 12:34:00,28.0,6.3,29.94,East,95,0.0,4.0,39,0.00,,---,0.00,VWS V14.01,2013-02-05 17:34:00,
2013-02-05 12:39:00,28.0,6.3,29.94,East,95,0.0,3.6,39,0.00,,---,0.00,VWS V14.01,2013-02-05 17:39:00,
2013-02-05 12:44:00,28.0,6.3,29.94,East,95,0.0,4.5,39,0.00,,---,0.00,VWS V14.01,2013-02-05 17:44:00,
2013-02-05 12:49:00,28.0,6.3,29.94,East,95,3.6,4.0,39,0.00,,---,0.00,VWS V14.01,2013-02-05 17:49:00,
2013-02-05 12:54:00,28.4,6.6,29.94,East,95,2.7,4.9,39,0.00,,---,0.00,VWS V14.01,2013-02-05 17:54:00,
2013-02-05 12:59:00,28.6,6.8,29.94,East,95,0.0,4.5,39,0.00,,---,0.00,VWS V14.01,2013-02-05 17:59:00,
2013-02-05 13:04:00,28.8,6.9,29.94,East,95,0.0,4.0,39,0.00,,---,0.00,VWS V14.01,2013-02-05 18:04:00,
2013-02-05 13:09:00,28.8,6.9,29.91,East,95,5.8,5.8,39,0.00,,---,0.00,VWS V14.01,2013-02-05 18:09:00,
2013-02-05 13:14:00,29.5,7.6,29.91,East,95,0.0,3.1,39,0.00,,---,0.00,VWS V14.01,2013-02-05 18:14:00,
2013-02-05 13:19:00,29.3,6.3,29.91,East,95,0.0,4.9,37,0.00,,---,0.00,VWS V14.01,2013-02-05 18:19:00,
2013-02-05 13:24:00,28.9,5.9,29.94,East,95,0.0,4.5,37,0.00,,---,0.00,VWS V14.01,2013-02-05 18:24:00,
2013-02-05 13:29:00,28.9,5.9,29.94,East,95,0.0,0.0,37,0.00,,---,0.00,VWS V14.01,2013-02-05 18:29:00,
2013-02-05 13:34:00,29.3,6.3,29.94,East,95,0.0,5.4,37,0.00,,---,0.00,VWS V14.01,2013-02-05 18:34:00,
2013-02-05 13:39:00,29.3,6.3,29.91,East,95,0.0,4.0,37,0.00,,---,0.00,VWS V14.01,2013-02-05 18:39:00,
2013-02-05 13:44:00,29.1,6.1,29.91,East,95,0.0,3.6,37,0.00,,---,0.00,VWS V14.01,2013-02-05 18:44:00,
2013-02-05 13:49:00,29.5,6.4,29.91,East,95,3.6,4.0,37,0.00,,---,0.00,VWS V14.01,2013-02-05 18:49:00,
2013-02-05 13:54:00,29.5,6.4,29.91,East,95,0.0,4.0,37,0.00,,---,0.00,VWS V14.01,2013-02-05 18:54:00,
2013-02-05 13:59:00,29.7,6.6,29.91,East,95,0.0,0.0,37,0.00,,---,0.00,VWS V14.01,2013-02-05 18:59:00,
2013-02-05 14:04:00,29.7,6.0,29.91,East,95,2.7,4.5,36,0.00,,---,0.00,VWS V14.01,2013-02-05 19:04:00,
2013-02-05 14:09:00,29.1,5.5,29.91,East,95,3.1,3.6,36,0.00,,---,0.00,VWS V14.01,2013-02-05 19:09:00,
2013-02-05 14:14:00,28.9,5.3,29.91,East,95,0.0,2.7,36,0.00,,---,0.00,VWS V14.01,2013-02-05 19:14:00,
2013-02-05 14:19:00,28.9,5.9,29.91,East,95,0.0,0.0,37,0.00,,---,0.00,VWS V14.01,2013-02-05 19:19:00,
2013-02-05 14:24:00,28.8,5.2,29.91,East,95,0.0,4.0,36,0.00,,---,0.00,VWS V14.01,2013-02-05 19:24:00,
2013-02-05 14:29:00,28.6,5.0,29.91,East,95,4.9,4.9,36,0.00,,---,0.00,VWS V14.01,2013-02-05 19:29:00,
2013-02-05 14:34:00,28.4,4.9,29.91,East,95,2.7,4.9,36,0.00,,---,0.00,VWS V14.01,2013-02-05 19:34:00,
2013-02-05 14:39:00,28.8,5.8,29.88,East,95,0.0,3.1,37,0.00,,---,0.00,VWS V14.01,2013-02-05 19:39:00,
2013-02-05 14:44:00,29.1,6.7,29.88,East,95,0.0,4.0,38,0.00,,---,0.00,VWS V14.01,2013-02-05 19:44:00,
2013-02-05 14:49:00,29.3,5.7,29.88,East,95,3.1,4.5,36,0.00,,---,0.00,VWS V14.01,2013-02-05 19:49:00,
2013-02-05 14:54:00,29.3,5.7,29.88,East,95,2.7,4.5,36,0.00,,---,0.00,VWS V14.01,2013-02-05 19:54:00,
2013-02-05 14:59:00,29.7,6.0,29.88,East,95,3.1,4.0,36,0.00,,---,0.00,VWS V14.01,2013-02-05 19:59:00,
2013-02-05 15:05:00,29.3,5.1,29.88,East,95,4.0,4.5,35,0.00,,---,0.00,VWS V14.01,2013-02-05 20:05:00,
2013-02-05 15:10:00,28.8,4.6,29.88,East,95,3.6,3.6,35,0.00,,---,0.00,VWS V14.01,2013-02-05 20:10:00,
2013-02-05 15:15:00,28.8,4.6,29.88,East,95,0.0,0.0,35,0.00,,---,0.00,VWS V14.01,2013-02-05 20:15:00,
2013-02-05 15:20:00,28.8,4.6,29.88,East,96,3.6,3.6,35,0.00,,---,0.00,VWS V14.01,2013-02-05 20:20:00,
2013-02-05 15:25:00,28.6,4.4,29.88,East,95,3.1,3.1,35,0.00,,---,0.00,VWS V14.01,2013-02-05 20:25:00,
2013-02-05 15:30:00,28.6,4.4,29.88,East,95,0.0,0.0,35,0.00,,---,0.00,VWS V14.01,2013-02-05 20:30:00,
2013-02-05 15:35:00,28.4,4.2,29.88,East,96,2.7,3.1,35,0.00,,---,0.00,VWS V14.01,2013-02-05 20:35:00,
2013-02-05 15:40:00,28.4,4.2,29.91,East,95,0.0,0.0,35,0.00,,---,0.00,VWS V14.01,2013-02-05 20:40:00,
2013-02-05 15:45:00,28.6,4.4,29.91,East,95,0.0,0.0,35,0.00,,---,0.00,VWS V14.01,2013-02-05 20:45:00,
2013-02-05 15:50:00,28.6,4.4,29.91,East,95,0.0,2.7,35,0.00,,---,0.00,VWS V14.01,2013-02-05 20:50:00,
2013-02-05 15:55:00,28.6,4.4,29.91,East,95,4.9,4.9,35,0.00,,---,0.00,VWS V14.01,2013-02-05 20:55:00,
2013-02-05 16:00:00,28.6,4.4,29.91,East,95,0.0,0.0,35,0.00,,---,0.00,VWS V14.01,2013-02-05 21:00:00,
2013-02-05 16:05:00,28.6,4.4,29.91,East,95,0.0,3.1,35,0.00,,---,0.00,VWS V14.01,2013-02-05 21:05:00,
2013-02-05 16:10:00,28.4,4.9,29.91,East,95,0.0,0.0,36,0.00,,---,0.00,VWS V14.01,2013-02-05 21:10:00,
2013-02-05 16:15:00,28.4,5.5,29.91,East,95,0.0,0.0,37,0.00,,---,0.00,VWS V14.01,2013-02-05 21:15:00,
2013-02-05 16:20:00,28.4,6.1,29.91,East,95,3.1,3.1,38,0.00,,---,0.00,VWS V14.01,2013-02-05 21:20:00,
2013-02-05 16:25:00,28.0,6.3,29.91,East,96,0.0,2.7,39,0.00,,---,0.00,VWS V14.01,2013-02-05 21:25:00,
2013-02-05 16:30:00,28.0,7.4,29.91,East,95,0.0,0.0,41,0.00,,---,0.00,VWS V14.01,2013-02-05 21:30:00,
2013-02-05 16:35:00,27.9,7.2,29.91,East,95,0.0,3.1,41,0.00,,---,0.00,VWS V14.01,2013-02-05 21:35:00,
2013-02-05 16:40:00,27.7,7.1,29.88,East,95,0.0,0.0,41,0.00,,---,0.00,VWS V14.01,2013-02-05 21:40:00,
2013-02-05 16:45:00,27.7,7.1,29.88,East,95,0.0,0.0,41,0.00,,---,0.00,VWS V14.01,2013-02-05 21:45:00,
2013-02-05 16:50:00,27.7,7.6,29.88,East,95,0.0,0.0,42,0.00,,---,0.00,VWS V14.01,2013-02-05 21:50:00,
2013-02-05 16:55:00,27.7,7.6,29.91,East,95,0.0,0.0,42,0.00,,---,0.00,VWS V14.01,2013-02-05 21:55:00,
2013-02-05 17:00:00,27.5,7.4,29.91,East,95,0.0,0.0,42,0.00,,---,0.00,VWS V14.01,2013-02-05 22:00:00,
2013-02-05 17:05:00,27.5,7.9,29.91,East,95,0.0,0.0,43,0.00,,---,0.00,VWS V14.01,2013-02-05 22:05:00,
2013-02-05 17:10:00,27.3,7.8,29.91,East,96,0.0,4.5,43,0.00,,---,0.00,VWS V14.01,2013-02-05 22:10:00,
2013-02-05 17:15:00,27.1,7.6,29.91,East,95,0.0,0.0,43,0.00,,---,0.00,VWS V14.01,2013-02-05 22:15:00,
2013-02-05 17:20:00,27.0,7.5,29.91,East,95,0.0,0.0,43,0.00,,---,0.00,VWS V14.01,2013-02-05 22:20:00,
2013-02-05 17:25:00,26.8,7.8,29.88,East,95,0.0,0.0,44,0.00,,---,0.00,VWS V14.01,2013-02-05 22:25:00,
2013-02-05 17:30:00,26.6,7.6,29.88,East,95,0.0,0.0,44,0.00,,---,0.00,VWS V14.01,2013-02-05 22:30:00,
2013-02-05 17:35:00,26.6,8.1,29.88,East,96,0.0,0.0,45,0.00,,---,0.00,VWS V14.01,2013-02-05 22:35:00,
2013-02-05 17:40:00,26.4,8.0,29.91,East,95,0.0,0.0,45,0.00,,---,0.00,VWS V14.01,2013-02-05 22:40:00,
2013-02-05 17:45:00,26.2,8.3,29.91,East,96,0.0,0.0,46,0.00,,---,0.00,VWS V14.01,2013-02-05 22:45:00,
2013-02-05 17:50:00,26.2,8.3,29.88,East,95,0.0,0.0,46,0.00,,---,0.00,VWS V14.01,2013-02-05 22:50:00,
2013-02-05 17:55:00,26.2,8.8,29.88,East,95,0.0,0.0,47,0.00,,---,0.00,VWS V14.01,2013-02-05 22:55:00,
2013-02-05 18:00:00,26.2,9.2,29.88,East,95,0.0,0.0,48,0.00,,---,0.00,VWS V14.01,2013-02-05 23:00:00,
2013-02-05 18:05:00,26.1,9.1,29.88,East,95,0.0,0.0,48,0.00,,---,0.00,VWS V14.01,2013-02-05 23:05:00,
2013-02-05 18:10:00,26.1,9.5,29.88,East,95,0.0,0.0,49,0.00,,---,0.00,VWS V14.01,2013-02-05 23:10:00,
2013-02-05 18:15:00,25.9,9.4,29.88,East,96,0.0,0.0,49,0.00,,---,0.00,VWS V14.01,2013-02-05 23:15:00,
2013-02-05 18:20:00,25.7,9.6,29.88,East,95,0.0,0.0,50,0.00,,---,0.00,VWS V14.01,2013-02-05 23:20:00,
2013-02-05 18:25:00,25.5,9.9,29.88,East,96,0.0,0.0,51,0.00,,---,0.00,VWS V14.01,2013-02-05 23:25:00,
2013-02-05 18:30:00,25.5,10.4,29.88,East,95,0.0,0.0,52,0.00,,---,0.00,VWS V14.01,2013-02-05 23:30:00,
2013-02-05 18:35:00,25.7,10.1,29.91,East,95,0.0,0.0,51,0.00,,---,0.00,VWS V14.01,2013-02-05 23:35:00,
2013-02-05 18:40:00,25.9,10.7,29.91,East,95,0.0,0.0,52,0.00,,---,0.00,VWS V14.01,2013-02-05 23:40:00,
2013-02-05 18:45:00,25.7,10.5,29.91,East,96,0.0,0.0,52,0.00,,---,0.00,VWS V14.01,2013-02-05 23:45:00,
2013-02-05 18:50:00,25.7,10.5,29.91,East,95,0.0,0.0,52,0.00,,---,0.00,VWS V14.01,2013-02-05 23:50:00,
2013-02-05 18:55:00,25.7,10.5,29.91,East,95,0.0,0.0,52,0.00,,---,0.00,VWS V14.01,2013-02-05 23:55:00,
2013-02-05 19:00:00,25.7,10.9,29.91,East,95,0.0,0.0,53,0.00,,---,0.00,VWS V14.01,2013-02-06 00:00:00,
2013-02-05 19:06:00,25.7,10.9,29.91,East,95,0.0,0.0,53,0.00,,---,0.00,VWS V14.01,2013-02-06 00:06:00,
2013-02-05 19:11:00,25.7,10.9,29.91,East,95,0.0,0.0,53,0.00,,---,0.00,VWS V14.01,2013-02-06 00:11:00,
2013-02-05 19:16:00,25.9,11.1,29.91,East,95,0.0,0.0,53,0.00,,---,0.00,VWS V14.01,2013-02-06 00:16:00,
2013-02-05 19:21:00,25.7,10.9,29.91,East,96,0.0,2.7,53,0.00,,---,0.00,VWS V14.01,2013-02-06 00:21:00,
2013-02-05 19:26:00,25.7,10.9,29.91,East,95,0.0,0.0,53,0.00,,---,0.00,VWS V14.01,2013-02-06 00:26:00,
2013-02-05 19:31:00,25.7,10.9,29.91,East,95,0.0,0.0,53,0.00,,---,0.00,VWS V14.01,2013-02-06 00:31:00,
2013-02-05 19:36:00,25.7,10.9,29.91,East,96,0.0,0.0,53,0.00,,---,0.00,VWS V14.01,2013-02-06 00:36:00,
2013-02-05 19:41:00,25.5,11.2,29.91,East,95,0.0,0.0,54,0.00,,---,0.00,VWS V14.01,2013-02-06 00:41:00,
2013-02-05 19:46:00,25.5,11.2,29.91,East,95,0.0,2.7,54,0.00,,---,0.00,VWS V14.01,2013-02-06 00:46:00,
2013-02-05 19:51:00,25.5,11.2,29.91,East,95,3.1,3.6,54,0.00,,---,0.00,VWS V14.01,2013-02-06 00:51:00,
2013-02-05 19:56:00,25.5,11.2,29.91,East,95,0.0,0.0,54,0.00,,---,0.00,VWS V14.01,2013-02-06 00:56:00,
2013-02-05 20:01:00,25.5,11.2,29.91,East,95,0.0,0.0,54,0.00,,---,0.00,VWS V14.01,2013-02-06 01:01:00,
2013-02-05 20:06:00,25.5,11.2,29.88,East,96,0.0,3.1,54,0.00,,---,0.00,VWS V14.01,2013-02-06 01:06:00,
2013-02-05 20:11:00,25.3,11.4,29.88,East,95,0.0,3.1,55,0.00,,---,0.00,VWS V14.01,2013-02-06 01:11:00,
2013-02-05 20:16:00,25.3,11.4,29.88,East,96,0.0,0.0,55,0.00,,---,0.00,VWS V14.01,2013-02-06 01:16:00,
2013-02-05 20:21:00,25.5,11.6,29.91,East,96,0.0,0.0,55,0.00,,---,0.00,VWS V14.01,2013-02-06 01:21:00,
2013-02-05 20:26:00,25.5,11.6,29.91,East,95,0.0,0.0,55,0.00,,---,0.00,VWS V14.01,2013-02-06 01:26:00,
2013-02-05 20:31:00,25.3,11.4,29.91,East,95,0.0,0.0,55,0.00,,---,0.00,VWS V14.01,2013-02-06 01:31:00,
2013-02-05 20:36:00,25.5,11.6,29.88,East,95,0.0,0.0,55,0.00,,---,0.00,VWS V14.01,2013-02-06 01:36:00,
2013-02-05 20:41:00,25.5,12.0,29.88,East,96,0.0,0.0,56,0.00,,---,0.00,VWS V14.01,2013-02-06 01:41:00,
2013-02-05 20:46:00,25.5,12.0,29.88,East,96,0.0,0.0,56,0.00,,---,0.00,VWS V14.01,2013-02-06 01:46:00,
2013-02-05 20:51:00,25.5,12.0,29.91,East,95,0.0,0.0,56,0.00,,---,0.00,VWS V14.01,2013-02-06 01:51:00,
2013-02-05 20:56:00,25.5,12.0,29.91,East,95,0.0,0.0,56,0.00,,---,0.00,VWS V14.01,2013-02-06 01:56:00,
2013-02-05 21:01:00,25.5,12.0,29.91,East,95,0.0,0.0,56,0.00,,---,0.00,VWS V14.01,2013-02-06 02:01:00,
2013-02-05 21:06:00,25.5,12.0,29.91,East,95,0.0,0.0,56,0.00,,---,0.00,VWS V14.01,2013-02-06 02:06:00,
2013-02-05 21:11:00,25.5,12.0,29.91,East,95,0.0,0.0,56,0.00,,---,0.00,VWS V14.01,2013-02-06 02:11:00,
2013-02-05 21:16:00,25.5,12.0,29.91,East,95,0.0,0.0,56,0.00,,---,0.00,VWS V14.01,2013-02-06 02:16:00,
2013-02-05 21:21:00,25.7,12.6,29.91,East,95,0.0,0.0,57,0.00,,---,0.00,VWS V14.01,2013-02-06 02:21:00,
2013-02-05 21:26:00,25.7,12.2,29.91,East,95,0.0,0.0,56,0.00,,---,0.00,VWS V14.01,2013-02-06 02:26:00,
2013-02-05 21:31:00,25.7,12.2,29.91,East,96,0.0,0.0,56,0.00,,---,0.00,VWS V14.01,2013-02-06 02:31:00,
2013-02-05 21:36:00,25.5,12.0,29.91,East,95,0.0,0.0,56,0.00,,---,0.00,VWS V14.01,2013-02-06 02:36:00,
2013-02-05 21:41:00,25.5,12.4,29.91,East,95,0.0,0.0,57,0.00,,---,0.00,VWS V14.01,2013-02-06 02:41:00,
2013-02-05 21:46:00,25.5,12.4,29.91,East,95,0.0,0.0,57,0.00,,---,0.00,VWS V14.01,2013-02-06 02:46:00,
2013-02-05 21:51:00,25.5,12.4,29.91,East,95,0.0,0.0,57,0.00,,---,0.00,VWS V14.01,2013-02-06 02:51:00,
2013-02-05 21:56:00,25.5,12.4,29.91,East,95,0.0,0.0,57,0.00,,---,0.00,VWS V14.01,2013-02-06 02:56:00,
2013-02-05 22:01:00,25.5,12.4,29.91,East,95,0.0,0.0,57,0.00,,---,0.00,VWS V14.01,2013-02-06 03:01:00,
2013-02-05 22:06:00,25.7,12.6,29.91,East,95,0.0,0.0,57,0.00,,---,0.00,VWS V14.01,2013-02-06 03:06:00,
2013-02-05 22:11:00,25.7,12.6,29.91,East,96,0.0,0.0,57,0.00,,---,0.00,VWS V14.01,2013-02-06 03:11:00,
2013-02-05 22:16:00,25.7,12.6,29.91,East,95,0.0,0.0,57,0.00,,---,0.00,VWS V14.01,2013-02-06 03:16:00,
2013-02-05 22:21:00,25.7,12.6,29.91,East,95,0.0,0.0,57,0.00,,---,0.00,VWS V14.01,2013-02-06 03:21:00,
2013-02-05 22:26:00,25.9,12.8,29.91,East,95,0.0,0.0,57,0.00,,---,0.00,VWS V14.01,2013-02-06 03:26:00,
2013-02-05 22:32:00,25.9,12.8,29.91,East,95,0.0,0.0,57,0.00,,---,0.00,VWS V14.01,2013-02-06 03:32:00,
2013-02-05 22:37:00,26.1,12.9,29.91,East,95,0.0,0.0,57,0.00,,---,0.00,VWS V14.01,2013-02-06 03:37:00,
2013-02-05 22:42:00,26.1,12.9,29.91,East,95,0.0,0.0,57,0.00,,---,0.00,VWS V14.01,2013-02-06 03:42:00,
2013-02-05 22:47:00,26.1,12.9,29.91,East,95,0.0,0.0,57,0.00,,---,0.00,VWS V14.01,2013-02-06 03:47:00,
2013-02-05 22:52:00,25.9,12.8,29.91,East,96,0.0,0.0,57,0.00,,---,0.00,VWS V14.01,2013-02-06 03:52:00,
2013-02-05 22:57:00,26.1,12.9,29.91,East,95,0.0,0.0,57,0.00,,---,0.00,VWS V14.01,2013-02-06 03:57:00,
2013-02-05 23:02:00,25.9,12.8,29.91,East,96,0.0,0.0,57,0.00,,---,0.00,VWS V14.01,2013-02-06 04:02:00,
2013-02-05 23:07:00,25.9,12.8,29.91,East,95,0.0,0.0,57,0.00,,---,0.00,VWS V14.01,2013-02-06 04:07:00,
2013-02-05 23:12:00,25.9,12.4,29.91,East,95,0.0,0.0,56,0.00,,---,0.00,VWS V14.01,2013-02-06 04:12:00,
2013-02-05 23:17:00,25.9,12.4,29.91,East,95,0.0,0.0,56,0.00,,---,0.00,VWS V14.01,2013-02-06 04:17:00,
2013-02-05 23:22:00,25.9,12.4,29.91,East,95,0.0,0.0,56,0.00,,---,0.00,VWS V14.01,2013-02-06 04:22:00,
2013-02-05 23:27:00,25.9,12.8,29.91,East,95,0.0,0.0,57,0.00,,---,0.00,VWS V14.01,2013-02-06 04:27:00,
2013-02-05 23:32:00,26.1,12.9,29.91,East,95,0.0,0.0,57,0.00,,---,0.00,VWS V14.01,2013-02-06 04:32:00,
2013-02-05 23:37:00,26.1,12.9,29.91,East,95,0.0,0.0,57,0.00,,---,0.00,VWS V14.01,2013-02-06 04:37:00,
2013-02-05 23:42:00,26.1,12.5,29.91,East,96,0.0,0.0,56,0.00,,---,0.00,VWS V14.01,2013-02-06 04:42:00,
2013-02-05 23:47:00,26.1,12.9,29.91,East,95,0.0,0.0,57,0.00,,---,0.00,VWS V14.01,2013-02-06 04:47:00,
2013-02-05 23:52:00,26.1,12.5,29.91,East,96,0.0,0.0,56,0.00,,---,0.00,VWS V14.01,2013-02-06 04:52:00,
2013-02-05 23:57:00,26.1,12.5,29.91,East,95,0.0,0.0,56,0.00,,---,0.00,VWS V14.01,2013-02-06 04:57:00,